Regional Weather Roundup
Issued by NWS Sterling, VA

Home | Current Version | Previous Version | Graphics & Text | Print | Product List | Glossary On
Versions: 1 2 3 4 5 6 7 8 9 10 11 12 13 14 15 16 17 18 19 20 21 22 23 24 25 26 27 28 29 30 31 32 33 34 35 36 37 38 39 40 41 42 43 44 45 46 47 48 49 50
000
ASUS41 KLWX 202210
RWRLWX

REGIONAL WEATHER ROUNDUP
NATIONAL WEATHER SERVICE BALTIMORE MD/WASHINGTON DC
500 PM EST SAT DEC 20 2014

Note: "FAIR" indicates few or no clouds below 12,000 feet
with no significant weather and/or obstructions to visibility.
 TC=TEMPERATURE CELSIUS

 * =Non NWS site. Station does not report precipitation (e.g. rain,
    snow, etc.), thunder, or fog.

DCZ001-MDZ009-015-VAZ040>042-051-053>054-202300-
WASHINGTON METRO

CITY           SKY/WX    TMP DP  RH WIND       PRES   REMARKS
WASHINGTON NAT CLOUDY    38  20  48 SW6       30.29R
DULLES         CLOUDY    33  21  61 CALM      30.27R
ANDREWS AFB    PTCLDY    35  21  57 W3        30.26R
FT BELVOIR     CLOUDY    36  22  55 CALM      30.28S
QUANTICO       CLOUDY    36  22  56 CALM      30.30R
COLLEGE PARK*  MOCLDY    37  23  56 CALM      30.27S
LEESBURG*      CLOUDY    36  27  69 CALM      30.28R
GAITHERSBURG*  CLOUDY    34  19  55 CALM      30.29S

$$

MDZ006>007-011-014-202300-
BALTIMORE METRO

CITY           SKY/WX    TMP DP  RH WIND       PRES   REMARKS
BWI AIRPORT    MOCLDY    35  21  56 CALM      30.27R
MD SCIENCE CTR   N/A     37  21  52 MISG      30.26S
ANNAPOLIS      PTCLDY    35  23  61 E3        30.28S
FORT MEADE*    PTCLDY    34  23  64 CALM      30.29S

$$

MDZ012-015-019>023-202300-
MARYLAND EASTERN SHORE

CITY           SKY/WX    TMP DP  RH WIND       PRES   REMARKS
OCEAN CITY     CLOUDY    36  25  64 CALM      30.27S
SALISBURY      CLOUDY    38  25  59 W5        30.27S
BAY BRIDGE AP*   N/A     34  23  64 CALM      30.28S
CAMBRIDGE*     MOCLDY    37  27  65 CALM      30.27S
EASTON*        MOCLDY    37  27  65 CALM      30.31R

$$

MDZ017>025-202300-
SOUTHERN MARYLAND

CITY           SKY/WX    TMP DP  RH WIND       PRES   REMARKS
PATUXENT RIVER CLOUDY    35  23  61 CALM      30.28R
ST INIGOES     CLOUDY    35  21  56 CALM      30.27S
LEONARDTOWN*   CLOUDY    34  23  64 CALM      30.29R

$$

MDZ003>005-202300-
NORTH CENTRAL MARYLAND

CITY           SKY/WX    TMP DP  RH WIND       PRES   REMARKS
FREDERICK*     CLOUDY    36  21  55 CALM      30.29S
HAGERSTOWN APT PTCLDY    32  20  61 E3        30.24S
WESTMINSTER*   CLOUDY    30  21  69 CALM      30.24S

$$

MDZ501>502-202300-
WESTERN MARYLAND

CITY           SKY/WX    TMP DP  RH WIND       PRES   REMARKS
OAKLAND*       CLOUDY    27  27 100 W3        30.13R
CUMBERLAND*    PTCLDY    34  23  64 CALM      30.27S

$$

VAZ025>031-202300-
SHENANDOAH VALLEY

CITY           SKY/WX    TMP DP  RH WIND       PRES   REMARKS
WINCHESTER*    CLOUDY    34  21  60 CALM      30.24R
FRONT ROYAL*   CLOUDY    32  23  69 NE3       30.23S
LURAY*         CLOUDY    36  28  75 CALM      30.22R
NEW MARKET*    CLOUDY    33  25  71 CALM      30.22R
STAUNTON*      CLOUDY    36  25  66 N3        30.22R
WAYNESBORO*    CLOUDY    34  25  68 CALM      30.19S

$$

WVZ021-048>050-054>055-202300-
EASTERN WEST VIRGINIA PANHANDLE

CITY           SKY/WX    TMP DP  RH WIND       PRES   REMARKS
MARTINSBURG    CLOUDY    34  19  54 CALM      30.26R
PETERSBURG*    CLOUDY    35  22  59 CALM      30.23R

$$

VAZ036>039-050-202300-
CENTRAL FOOTHILLS

CITY           SKY/WX    TMP DP  RH WIND       PRES   REMARKS
CHARLOTTESVILL CLOUDY    37  24  59 S3        30.24R
CULPEPER*      CLOUDY    36  27  69 CALM      30.27S
ORANGE*        CLOUDY    34  28  80 CALM      30.27R
GORDONSVILLE*  CLOUDY    35  25  66 CALM      30.25R
WARRENTON*     CLOUDY    36  30  80 CALM      30.26S

$$

VAZ055>057-202300-
NORTH AND CENTRAL PIEDMONT

CITY           SKY/WX    TMP DP  RH WIND       PRES   REMARKS
FREDERICKSBRG* CLOUDY    37  25  61 CALM      30.27S
STAFFORD*      CLOUDY    34  21  58 CALM      30.32R

$$

NCZ024-NYZ072-PAZ021-071-VAZ022-071-202300-
OTHER REGIONAL OBSERVATIONS

CITY           SKY/WX    TMP DP  RH WIND       PRES   REMARKS
NEW YORK CITY  CLOUDY    33  20  58 NE5       30.28S
PHILADELPHIA   CLOUDY    35  21  56 NW5       30.29R
PITTSBURGH     MOCLDY    29  20  69 CALM      30.23R
ROANOKE        CLOUDY    38  25  59 E5        30.23R
RICHMOND       MOCLDY    38  22  52 CALM      30.27R
RALEIGH        CLOUDY    38  34  85 CALM      30.26R FOG

$$

ANZ530>537-202300-
MARINE OBSERVATIONS

STATION/POSITION TIME  TEMP    WIND        PRES
                       AIR SEA DIR/SP/G
                 (UTC) (F)     (DEG/KT/KT) (MB)
THOMAS PT LIGHT  2200   35 41   80/  2/  2 1026.5R
BALT KEY BRIDGE  2200   35     110/  5/  6 1025.0S
COVE POINT       2200   34        CALM     1025.0S
LEWISETTA        2200   36 41     CALM     1025.0S
SOLOMONS ISLAND  2200      43                N/A

$$



USA.gov is the U.S. government's official web portal to all federal, state and local government web resources and services.